Content
SEND FEEDBACK

Daily
Averages
Monthly
Summary
United States of America

DEFUNIAK SPRINGS, FLORIDA


Home > North America > United States > Florida
Elevation: 184 feet     Latitude: 30 44N     Longitude: 086 07W

WEATHER
 
SELECT A DAY
Number of Records: 97,999;   Date Range: 5/11/06 - 11/27/14
 
SHARE

PRINT THIS DATA

[ ← Previous Day ]
WEATHER ALMANAC - JANUARY 31, 2013
[ Next Day → ]
[ °C ]   °F
Weather ElementAverageHighLow
Temperature45.2 °F57 °F (2:58 pm)35.1 °F (6:58 am)
Dewpoint28.9 °F34 °F (5:58 pm)21.9 °F (1:58 pm)
Humidity56.8 %79 % (5:58 am)27 % (1:58 pm)
Barometer30.23 in30.32 in (11:58 pm)30.11 in (1:58 am)
Wind Speed3.5 mph13.8 mph (12:58 pm)
Wind Gust25.3 mph (12:58 pm)
Weather ElementAverage
Visibility10 mi
Wind DirectionESE (103 °)

Weather ElementTotal
Precipitation---
Heating Degree Days19 (Base 65)
Averaged from 23 records on January 31, 2013
WEATHER CONDITIONS BREAKOUT
WIND DIRECTION BREAKOUT
WEATHER BY HOUR - JANUARY 31, 2013
[ °C ]   °F
Local TimeTemperatureDewpointHumidityBarometerVisibilityWind DirectionWind SpeedGust SpeedPrecipitationEventsConditions
1:58 AM41.0 °F30.0 °F65 %30.11 inNW (320°)4.6 mphClear
2:58 AM39.9 °F28.9 °F65 %30.13 inNNW (330°)4.6 mphClear
3:58 AM37.9 °F28.9 °F70 %30.15 inVariable3.5 mphClear
4:58 AM37.9 °F28.0 °F68 %30.14 inCalmClear
5:58 AM36.0 °F30.0 °F79 %30.16 inCalmClear
6:58 AM35.1 °F28.9 °F78 %30.18 inCalmClear
7:58 AM39.9 °F30.9 °F70 %30.21 inVariable3.5 mphClear
8:58 AM45.0 °F30.0 °F56 %30.24 inVariable6.9 mphClear
9:58 AM48.0 °F26.1 °F42 %30.26 inNW (320°)8.1 mph17.3 mphClear
10:58 AM52.0 °F26.1 °F37 %30.27 inNorth (360°)6.9 mphClear
11:58 AM54.0 °F23.0 °F30 %30.25 inNNW (330°)12.7 mph19.6 mphClear
12:58 PM55.9 °F23.0 °F28 %30.22 in10.0 miNorth (360°)13.8 mph25.3 mphClear
1:58 PM55.9 °F21.9 °F27 %30.22 in10.0 miNorth (350°)9.2 mph17.3 mphClear
2:58 PM57.0 °F24.1 °F28 %30.21 in10.0 miVariable3.5 mphClear
3:58 PM55.9 °F24.1 °F29 %30.22 in10.0 miVariable3.5 mphClear
4:58 PM52.0 °F28.0 °F40 %30.22 in10.0 miCalmClear
5:58 PM46.0 °F34.0 °F63 %30.25 in10.0 miCalmClear
6:58 PM43.0 °F34.0 °F71 %30.26 in10.0 miCalmClear
7:58 PM42.1 °F34.0 °F73 %30.28 in10.0 miCalmClear
8:58 PM39.9 °F34.0 °F79 %30.28 in10.0 miCalmClear
9:58 PM37.9 °F32.0 °F79 %30.29 inCalmClear
10:58 PM42.1 °F30.9 °F65 %30.31 inCalmClear
11:58 PM44.1 °F33.1 °F65 %30.32 inCalmClear
Hourly data recorded from K0J4, located miles away from Defuniak Springs, Florida







STORIES FROM OUR PARTNERS